Tracking 30402 objects as of 12-May-2025
HD Live streaming from Space Station
objects crossing your sky now

STARLINK-5836

Track STARLINK-5836 now!
10-day predictions
STARLINK-5836 is classified as:


NORAD ID: 56386
Int'l Code: 2023-061N
Perigee: 565.5 km
Apogee: 567.0 km
Inclination: 43.0 °
Period: 95.8 minutes
Semi major axis: 6937 km
RCS: Unknown
Launch date: May 4, 2023
Source: United States (US)
Launch site: AIR FORCE EASTERN TEST RANGE (AFETR)
Your satellite tracking list
Your tracking list is empty




NASA's NSSDC Master Catalog

Two Line Element Set (TLE):
1 56386U 23061N   25131.91638558  .00000416  00000-0  45850-4 0  9994
2 56386  43.0072  36.9085 0001098 266.9621  93.1096 15.02536234111650
Source of the keplerian elements: AFSPC